Погода в Посаде

Россия / Архангельская область     63°06′35″N   39°14′21″E
темп.,
°C
ветер,
м/с
пор.,
м/с
влажн.,
%
обл.,
%
осадки,
мм/ч
давл.,
гПа
погр.,
м
10 августа, ср
ср1000:00+11ссз227651 0.0 102533
03:00+10ссз11896 0.0 102514
06:00+12з00824 0.0 102537
09:00+19зсз12505 0.0 1024501
12:00+22с013521 0.0 10242278
15:00+22з233244 0.0 10222440
18:00+20з3648100 0.0 1022464
21:00+15юз376265 0.0 1022126
11 августа, чт
чт1100:00+13юз3970100 0.0 1021170
03:00+14юз3968100 0.0 1020221
06:00+14юз31172100 0.0 1020309
09:00+18юз4106186 0.0 1019631
12:00+22зюз695095 0.0 10181455
15:00+23юз61051100 0.0 10161710
18:00+21юз6125796 0.0 10151293
21:00+18юз61365100 0.0 1014912
12 августа, пт
пт1200:00+17зюз51472100 0.1 1013747
03:00+17зюз4117899 0.1 1014616
06:00+15з4107966 0.0 1014771
09:00+18з58495 0.0 10151203
12:00+20зсз693818 0.0 10151849
15:00+21з5103585 0.0 10152012
18:00+17зсз5104988 0.0 10161143
21:00+14сз39664 0.0 1018463
13 августа, сб
сб1300:00+10зюз22843 0.0 102029
03:00+9зюз24866 0.0 102179
06:00+11з39745 0.0 1022262
09:00+17зсз35515 0.0 1023798
12:00+20з34392 0.0 10221851
15:00+21зсз34352 0.0 10222021
18:00+20зсз13465 0.0 10211066
21:00+13ююв11715 0.0 102111
14 августа, вс
вс1400:00+11ю12785 0.0 102117
03:00+11ю227477 0.0 102021
06:00+12ю1273100 0.0 102057
09:00+19ю2358100 0.0 1018425
12:00+21зюз2356100 0.0 10171102
15:00+23з3446100 0.0 10171658
18:00+22зюз2455100 0.0 1016126
21:00+17зюз237381 0.0 101743